Theta_e
317 316 316 321 323 325 326 324 321 321 321 314 316 317 317 321 321 321 321 320 319 317 315 315 315 316 318 318 319 319 319 319 319 316 317 325 323 320 319 321 320 324 327 329 335 336 336 338 339 341 341 342 341 340 339 339 339 338 338 338 337 337 337 338 337 338 339 338 338 337 338 338 338 338 337 337 337 337 336 336 335 335 337 337 338 339 340 339 338 338 338 337 336 336 334 333 333
318 319 319 323 323 324 325 323 319 318 316 312 314 317 318 321 320 321 321 320 320 316 313 314 315 315 316 316 317 318 320 319 320 319 320 322 321 323 319 321 321 322 328 330 335 337 338 339 338 340 341 341 341 339 339 339 339 338 337 338 337 337 337 337 337 338 338 339 339 338 338 338 338 338 338 338 337 337 336 336 336 337 337 337 339 339 339 338 337 337 337 336 335 335 333 331 332
321 323 323 325 324 324 325 322 316 314 313 310 312 318 319 319 320 320 319 319 318 313 313 315 315 315 316 317 318 318 320 319 319 319 321 320 322 328 321 321 320 321 328 330 336 338 340 340 338 339 339 340 340 339 339 339 339 338 338 338 337 336 336 337 338 338 339 339 339 338 338 338 338 338 338 337 337 337 336 336 336 337 337 337 339 338 338 336 336 336 335 335 334 334 333 331 330
323 324 324 325 324 324 324 321 318 314 312 310 311 318 319 318 319 318 318 318 316 313 313 317 316 316 317 318 319 318 320 319 320 320 322 323 324 329 323 322 319 320 328 330 336 339 341 340 338 339 340 341 340 340 339 339 340 339 339 338 337 336 336 337 338 339 339 339 338 338 338 338 339 338 338 337 336 336 336 336 336 336 337 337 337 337 336 335 335 334 334 334 334 333 332 331 330
323 322 322 325 323 322 323 321 320 315 312 312 311 316 320 318 319 318 318 317 315 314 314 316 318 317 315 317 318 318 320 319 321 319 323 324 322 325 324 323 321 320 326 329 335 339 340 340 339 339 340 341 340 340 339 339 339 339 339 338 338 337 336 337 338 339 339 339 338 338 339 338 339 338 337 335 335 334 334 335 335 336 335 335 335 335 334 333 333 333 333 333 332 333 332 330 328
324 321 321 322 321 321 321 318 317 315 316 317 314 316 319 318 318 317 318 317 315 313 313 316 316 315 315 316 317 318 320 319 320 319 321 323 321 323 325 323 322 320 324 329 334 338 339 340 339 338 339 340 340 340 339 339 339 339 339 338 338 337 336 337 338 338 338 339 339 338 339 339 338 337 336 334 333 332 333 333 334 335 334 334 333 332 332 331 331 331 332 331 331 331 329 327 323
324 323 322 321 320 320 319 317 315 317 319 319 317 318 318 318 319 317 318 317 315 313 313 314 314 315 317 316 316 318 317 317 320 321 320 321 321 323 325 324 322 321 325 329 333 336 338 339 338 338 339 340 340 340 339 339 339 338 338 337 338 336 335 337 338 338 339 339 339 339 338 338 337 336 335 333 332 331 331 331 331 333 333 333 331 330 330 329 329 329 329 329 328 326 322 318 313
323 323 322 321 321 321 319 317 318 319 319 318 319 318 318 318 318 317 317 317 317 316 314 314 313 315 318 314 316 318 315 315 317 318 318 319 320 322 325 324 323 322 325 328 331 335 338 339 337 337 338 339 339 339 339 337 338 337 337 337 338 336 335 337 339 338 339 339 339 338 338 337 336 335 334 332 331 330 330 330 330 331 331 331 330 328 327 328 327 326 325 322 318 314 310 306 303
320 320 321 321 320 319 317 317 318 319 319 319 318 318 319 318 317 317 317 318 317 317 315 314 314 316 317 314 317 319 316 315 314 315 316 318 319 320 325 325 324 323 324 327 329 335 337 338 337 336 337 337 338 338 338 336 337 337 337 337 338 337 337 338 338 337 338 339 338 338 337 336 335 334 333 332 329 328 328 328 329 330 329 329 328 327 327 327 326 323 318 312 307 303 301 300 299
320 319 321 321 318 316 314 315 317 318 319 318 317 316 317 317 316 316 317 318 317 317 315 312 313 315 317 316 317 319 318 315 313 315 315 317 318 319 324 325 325 324 324 326 329 334 336 336 335 335 336 336 337 337 337 336 337 337 337 337 337 337 338 338 338 338 338 338 337 336 335 334 334 332 331 330 327 327 327 327 327 328 327 326 326 326 326 325 323 317 309 302 300 299 299 299 299
320 319 319 319 316 312 312 314 316 318 318 317 317 316 316 316 315 316 316 317 317 317 314 312 314 315 315 316 318 318 315 314 314 316 315 316 318 319 324 326 326 326 325 325 328 333 334 334 333 334 335 336 337 336 335 335 336 336 337 337 337 337 338 338 338 338 337 336 335 334 334 333 332 331 330 328 326 326 325 325 325 325 325 325 325 325 324 322 318 310 302 299 299 299 299 299 299
320 320 319 316 314 313 314 315 316 319 319 319 319 316 314 314 315 317 317 317 316 316 316 314 315 315 316 317 319 318 314 314 314 314 315 316 318 319 323 327 327 328 327 325 327 331 333 334 334 333 334 336 336 336 335 334 335 336 337 337 337 337 338 337 337 336 335 335 334 333 332 331 331 330 329 327 326 325 325 325 324 325 324 324 324 324 322 317 311 304 299 299 299 299 299 299 299
320 321 319 315 316 317 317 316 317 319 319 320 318 314 312 314 317 317 317 317 316 316 316 315 315 314 317 318 319 318 317 316 313 313 315 317 318 319 323 327 327 328 328 328 329 330 332 334 334 334 334 334 335 336 335 334 334 336 337 337 337 337 337 336 335 334 333 333 332 330 329 329 330 330 328 326 325 325 324 324 323 324 324 324 324 322 318 312 305 300 299 299 299 299 299 299 299
320 321 318 317 317 318 317 317 318 318 317 318 317 312 311 314 316 315 316 317 317 317 314 313 314 315 317 317 318 319 318 315 313 314 315 316 318 318 322 326 328 329 329 330 331 331 331 333 335 335 334 334 334 334 334 334 333 335 337 336 336 336 336 335 333 332 331 332 331 329 328 328 329 328 326 325 325 324 323 323 322 322 322 322 322 319 314 308 301 298 299 299 299 299 299 299 299
319 320 319 319 318 318 318 318 319 317 316 318 315 311 312 314 314 314 315 316 317 314 312 312 313 315 317 317 317 319 316 312 313 314 315 317 318 318 322 326 328 329 330 331 331 331 331 332 334 334 334 334 334 334 333 333 332 332 334 335 335 335 334 334 333 331 330 331 329 328 328 327 327 326 326 324 324 323 322 321 321 321 321 321 319 314 309 303 298 298 299 299 299 299 299 300 300
318 320 319 319 318 317 318 318 318 317 317 318 313 310 314 314 312 314 313 313 315 313 312 313 312 314 317 316 318 317 312 312 314 314 315 317 318 320 322 325 328 328 329 330 331 332 332 333 333 333 334 334 334 334 334 333 331 330 330 332 333 333 333 332 332 330 329 329 328 328 327 327 326 326 325 323 322 322 319 319 319 319 320 320 316 309 303 299 298 298 298 298 299 299 300 300 301
317 320 319 317 317 317 318 318 317 316 317 317 314 311 315 315 312 311 310 309 313 314 312 313 314 314 314 316 316 313 311 313 313 314 317 320 321 322 323 324 326 327 328 328 330 331 332 332 332 332 333 333 334 334 333 332 331 330 330 330 330 331 331 331 331 330 329 328 328 327 326 326 326 325 324 322 322 321 318 316 315 318 320 320 314 305 300 298 298 298 298 298 299 299 300 300 300
318 320 319 316 318 318 318 318 317 316 316 316 315 312 313 315 314 312 310 311 313 314 313 313 313 313 314 315 314 312 312 312 313 316 320 323 325 325 325 324 325 326 327 327 329 330 331 332 332 332 332 332 332 332 332 332 331 330 330 331 330 330 331 330 330 329 328 328 328 326 326 326 325 325 323 322 322 320 317 313 313 317 320 319 311 302 299 297 297 297 298 298 298 299 299 300 301
319 320 318 317 319 318 317 317 316 315 316 316 315 313 312 314 314 312 313 315 315 314 315 315 314 314 315 315 314 313 312 313 315 317 321 323 324 326 327 326 325 325 326 327 327 328 329 330 331 332 332 332 332 332 332 332 331 329 328 329 330 330 330 330 330 329 328 327 327 326 325 325 325 324 322 321 320 319 316 312 313 317 320 317 308 301 298 297 297 297 297 298 298 299 300 300 300
319 319 319 319 320 318 315 315 315 315 315 315 315 313 312 313 313 312 313 315 315 315 316 316 316 315 316 315 316 314 312 314 316 317 319 320 322 324 325 327 326 325 325 326 327 327 327 328 330 331 332 332 332 332 332 331 330 329 328 328 330 330 330 330 330 328 327 327 326 326 325 324 324 323 321 319 317 317 315 312 314 317 319 315 307 301 298 296 297 297 297 298 298 299 300 300 300
318 318 319 320 318 317 316 315 315 314 312 313 314 313 314 313 311 312 313 315 316 316 317 317 316 316 316 316 316 315 313 314 316 317 318 319 320 321 323 325 326 324 323 324 326 326 325 326 328 330 330 331 331 331 330 329 328 328 329 329 329 330 329 329 329 328 327 327 326 325 325 324 324 322 320 318 317 317 316 315 315 317 318 314 308 304 300 297 297 297 297 297 298 299 299 299 299
317 317 319 319 316 317 318 316 315 313 311 311 313 314 314 313 311 312 313 315 316 317 317 317 316 316 316 315 315 315 314 315 315 317 318 319 320 320 321 322 323 324 322 323 324 324 323 324 326 327 328 328 328 328 328 327 327 328 328 328 328 329 329 328 328 328 327 326 326 325 325 324 323 321 320 317 316 317 316 316 317 317 317 312 307 304 300 297 297 297 297 297 298 299 299 298 298
316 318 318 318 317 317 317 315 314 312 311 313 314 314 314 313 314 314 314 314 316 316 316 316 316 316 315 314 313 313 313 314 315 317 317 318 319 319 319 320 321 322 321 320 321 322 322 322 324 325 326 327 326 326 326 326 326 327 328 327 328 328 328 327 328 327 326 326 326 325 325 323 322 320 319 316 315 314 314 314 313 314 313 309 304 302 298 297 297 296 297 298 298 299 298 298 298
316 317 317 316 317 316 316 315 313 312 313 315 315 314 314 315 316 315 314 314 315 315 316 315 316 316 315 313 312 312 313 314 315 316 316 317 317 317 318 319 319 319 319 319 320 320 321 321 322 324 325 325 326 326 326 327 326 326 327 327 327 327 327 327 327 326 326 326 326 325 325 323 321 319 318 315 313 312 311 309 307 308 309 307 302 299 298 297 297 297 298 298 298 298 298 297 297
315 317 316 316 315 315 315 314 312 313 313 314 314 313 314 315 315 314 314 314 314 315 315 315 315 314 313 312 311 312 312 313 315 314 315 315 315 315 316 317 318 318 318 318 319 319 320 320 321 322 323 324 325 325 326 327 326 326 326 326 326 326 326 326 326 326 326 326 325 325 324 323 320 317 316 314 311 310 309 306 304 305 306 305 301 298 297 296 296 297 298 298 298 298 297 297 296
315 316 316 315 314 315 314 312 312 313 312 312 312 313 314 314 312 313 313 314 314 314 314 314 313 312 312 312 311 311 311 312 314 314 314 314 314 314 314 315 316 317 316 317 318 318 319 319 320 321 322 323 324 324 325 326 326 325 325 325 325 324 325 325 325 325 325 325 325 324 324 323 319 316 315 313 310 308 306 304 303 303 303 302 300 298 297 296 297 297 297 298 298 297 297 296 296
312 313 313 313 313 313 312 311 311 311 311 311 311 313 314 312 311 313 314 313 313 313 313 313 312 311 312 312 312 311 311 311 312 313 313 313 313 313 313 313 314 314 314 315 315 316 317 317 319 319 321 322 323 323 323 324 325 325 325 324 324 324 323 324 324 324 325 325 325 324 324 322 318 316 314 311 308 307 305 304 303 302 302 300 298 297 296 296 296 297 297 298 297 297 296 295 294
310 310 311 312 312 312 311 311 311 311 310 310 311 312 313 312 310 312 313 313 311 311 312 312 312 312 312 312 312 312 311 311 311 311 312 312 313 313 312 313 312 312 313 313 313 315 315 316 317 318 319 321 322 323 322 322 324 324 324 324 324 324 323 323 324 323 323 324 324 324 323 322 318 316 314 309 307 306 304 303 302 300 300 298 297 297 296 296 296 296 297 297 297 296 295 295 294
309 309 311 312 312 313 313 312 311 310 310 309 310 311 312 312 311 312 314 313 311 310 311 311 312 312 312 312 311 311 311 312 312 311 311 311 311 312 312 312 311 311 312 311 313 313 314 315 316 317 318 319 321 322 322 322 322 323 324 324 323 323 323 323 323 322 322 322 323 323 323 321 318 316 314 309 306 305 303 302 301 299 298 297 296 296 296 295 295 296 297 297 296 295 294 294 293
309 310 310 312 312 312 312 312 309 308 310 309 309 310 312 314 314 313 314 312 310 310 311 311 312 312 312 312 311 311 312 312 313 312 312 311 311 311 311 311 311 310 311 311 312 312 313 313 314 316 317 318 319 320 321 321 321 322 323 323 323 323 322 322 322 322 321 320 321 322 323 321 318 316 313 309 307 305 303 301 299 298 297 296 296 296 295 295 295 296 296 296 295 294 294 293 292
310 310 310 311 312 313 312 309 307 309 309 308 310 310 312 314 314 314 313 310 309 310 311 311 311 311 311 312 312 311 312 312 313 312 312 312 311 310 309 310 310 310 310 310 310 311 311 312 312 314 315 316 317 319 320 320 320 321 323 323 323 323 322 322 322 322 321 321 320 320 321 321 319 316 312 310 308 305 303 300 298 297 296 296 296 295 295 294 295 296 296 295 294 293 293 292 292
311 311 312 313 312 313 313 310 309 310 309 307 309 311 312 313 313 313 311 308 308 309 311 311 311 311 311 311 311 311 311 312 313 312 312 312 311 310 309 309 309 309 309 309 309 309 310 311 311 312 313 315 316 317 318 319 320 320 321 322 322 322 322 321 321 321 321 321 320 320 320 320 318 316 312 309 308 305 302 299 297 296 296 296 295 295 294 294 295 295 295 295 295 293 292 292 292
312 311 313 314 313 313 313 311 310 310 309 307 309 311 312 312 313 313 311 310 309 310 310 311 311 311 311 311 311 311 311 311 312 312 312 311 311 310 309 309 309 309 309 309 308 309 309 309 310 310 311 312 314 316 317 318 319 319 320 320 320 321 321 321 320 320 320 320 320 320 319 319 318 315 312 309 308 305 302 299 297 296 296 295 295 294 294 294 295 295 295 295 295 294 292 291 292
314 313 313 313 313 311 311 312 312 309 309 309 309 309 310 311 312 311 311 311 310 310 310 310 311 311 311 311 311 311 311 311 311 312 312 311 311 310 309 309 308 308 308 308 308 308 308 309 309 309 310 311 313 315 316 317 318 318 318 319 319 319 319 319 319 319 319 319 319 319 318 318 316 314 312 310 308 306 302 298 296 296 296 295 294 294 294 294 295 295 295 295 294 293 292 292 292
315 314 313 313 312 311 311 311 312 310 309 310 310 309 310 310 310 311 311 311 310 310 310 311 310 310 311 311 311 311 311 311 311 312 312 311 310 310 310 309 308 308 308 307 307 307 307 308 308 308 309 310 312 314 315 316 317 317 317 317 317 317 316 317 317 317 317 317 317 317 317 317 316 314 311 309 308 305 302 298 296 296 296 295 294 293 293 294 294 295 295 295 293 292 293 293 292
314 313 312 313 312 311 311 311 311 311 309 310 310 311 311 311 311 311 311 311 311 311 310 311 311 310 311 311 311 312 311 312 313 314 312 311 310 309 309 309 308 308 307 307 306 307 307 307 307 308 308 308 310 313 314 315 316 316 315 315 315 315 314 315 315 315 315 315 315 316 316 315 314 313 311 309 307 305 301 297 296 296 296 294 293 293 293 294 294 294 294 295 293 291 292 293 291
311 311 312 312 312 312 312 312 312 309 309 310 310 310 311 311 311 310 311 311 311 311 311 311 311 311 312 312 312 312 312 313 314 314 312 310 309 308 308 307 307 308 308 307 306 306 306 306 307 307 307 307 308 311 312 314 314 314 314 313 313 313 312 313 313 313 313 313 313 314 314 313 313 312 310 308 307 304 300 297 296 296 295 294 293 293 293 294 294 294 294 293 292 291 291 291 290
310 311 312 312 313 313 312 312 311 308 308 310 310 310 310 310 311 311 311 311 311 311 311 312 312 312 313 312 312 312 312 313 314 313 312 311 310 309 308 308 308 308 307 307 306 305 305 306 307 307 307 306 306 308 310 312 313 313 313 313 312 312 311 311 311 311 311 311 311 311 311 311 311 310 309 308 306 303 299 296 295 295 295 294 293 293 293 294 294 294 294 292 291 291 290 290 290
311 311 312 313 313 313 312 311 309 306 308 310 310 309 310 310 311 312 312 311 311 312 312 312 313 312 312 312 312 312 312 313 313 312 311 311 310 309 308 307 307 307 307 306 305 305 304 305 305 306 306 306 306 306 307 309 311 311 311 311 311 310 309 309 309 309 309 309 309 309 309 309 309 308 308 307 305 301 297 296 295 295 295 295 293 292 293 293 293 293 294 292 292 292 292 290 290
311 312 312 313 313 314 313 311 308 307 308 309 309 310 311 312 312 312 311 310 311 312 312 312 311 311 312 312 312 311 311 311 311 310 309 308 307 307 306 305 305 305 306 305 303 303 303 304 304 305 306 305 305 305 305 307 308 309 309 309 309 308 307 307 307 307 306 306 306 306 306 306 306 306 306 306 303 300 297 296 295 295 295 295 294 293 292 293 293 293 293 292 292 293 293 290 289
313 313 313 313 314 313 313 312 309 309 310 308 309 312 313 313 313 313 312 312 312 311 311 312 312 312 312 312 313 312 310 310 308 308 307 306 305 305 304 303 303 303 303 302 302 302 303 303 304 304 305 305 304 304 304 305 306 307 307 307 307 306 306 305 304 305 304 303 303 303 303 303 303 304 304 304 303 300 297 296 295 295 295 295 294 293 292 292 293 293 293 292 292 293 293 291 290
314 314 313 312 312 312 311 312 311 311 312 309 310 315 315 313 313 314 314 315 315 314 313 313 312 312 311 312 311 310 309 308 307 305 304 304 303 303 302 302 301 301 301 300 300 301 301 302 303 303 304 304 303 303 303 303 304 305 305 306 305 305 305 304 303 303 302 302 302 302 302 302 302 302 302 302 301 299 297 296 295 295 295 295 294 293 293 292 292 293 293 292 292 292 293 293 291
314 314 312 310 310 312 312 312 311 312 313 310 309 314 316 314 314 315 315 315 316 315 314 314 312 311 310 310 309 308 307 306 305 303 302 302 302 302 301 300 299 299 299 299 299 300 300 301 301 302 303 303 303 302 302 302 303 304 304 304 304 304 305 304 303 302 302 301 301 301 301 301 301 301 300 300 299 298 297 296 295 295 295 295 295 293 293 292 292 292 292 293 292 292 293 294 293
314 314 312 310 310 312 312 311 311 312 312 311 310 312 315 316 315 314 314 314 315 314 314 314 312 310 309 308 307 306 305 304 303 302 301 300 301 301 300 299 299 298 298 298 298 299 299 299 300 301 302 302 301 301 301 301 302 303 303 303 304 304 304 304 302 301 300 300 299 299 299 299 299 299 299 298 298 297 297 296 296 296 295 295 295 294 293 292 292 292 292 292 292 292 293 294 294
314 312 310 309 310 311 311 311 311 310 310 313 312 311 315 317 315 313 312 312 314 314 314 313 311 308 308 307 305 304 303 302 302 301 300 300 299 299 299 298 298 297 297 297 297 297 298 299 299 300 300 300 300 300 301 301 301 302 302 302 303 303 303 303 302 301 300 299 299 299 298 298 298 297 297 297 296 296 296 296 296 296 295 295 295 294 293 293 292 292 292 292 292 292 292 294 295
311 309 309 310 310 309 310 311 311 310 312 315 314 312 316 317 315 313 312 312 314 314 313 314 311 307 306 306 304 303 302 301 301 300 299 300 299 298 298 297 297 297 297 296 296 296 297 298 299 299 299 299 299 299 300 300 300 301 301 302 302 302 302 302 301 300 300 299 299 298 298 297 297 296 296 296 296 296 295 295 295 295 295 295 295 294 294 293 292 292 292 292 292 292 292 292 295
309 310 311 311 310 308 309 309 309 312 315 317 315 313 315 316 316 314 313 312 312 312 313 314 312 307 305 304 303 302 301 301 300 299 299 299 298 298 297 297 297 296 296 296 296 296 296 297 298 297 297 297 298 298 299 299 299 300 300 301 301 301 302 301 301 300 300 299 298 298 298 297 296 296 296 295 295 295 295 295 295 295 295 295 295 295 294 294 293 292 292 292 292 292 292 292 293
310 311 310 312 312 311 310 310 310 315 318 315 312 312 313 315 315 313 312 310 308 310 312 312 310 307 304 303 302 301 300 300 299 298 298 298 298 297 297 297 296 296 295 295 295 296 296 296 296 296 296 296 296 296 297 298 299 299 300 300 300 300 301 301 301 300 300 299 299 299 298 297 296 296 295 295 295 295 294 295 295 295 295 295 295 295 295 294 293 292 291 291 291 291 292 292 292
309 309 309 312 314 315 316 315 314 316 318 312 308 311 313 314 314 312 312 312 309 309 309 307 306 304 303 302 301 300 299 299 299 298 298 297 297 297 297 296 296 296 295 295 295 295 295 295 296 296 295 295 295 295 296 296 297 298 298 299 299 299 299 300 300 300 300 299 299 299 298 297 297 296 296 295 295 294 294 294 294 294 294 294 294 294 294 294 294 293 291 291 291 291 291 291 291
308 310 311 313 316 317 319 318 314 315 316 310 307 311 313 313 314 312 313 313 309 305 304 303 303 303 302 301 300 300 299 298 298 297 297 296 297 297 296 296 296 295 295 295 295 294 294 294 295 295 295 295 294 295 295 295 296 296 297 297 298 298 298 299 299 299 299 299 298 298 298 298 297 297 296 296 295 295 294 294 294 294 294 294 294 294 294 294 294 293 292 291 291 291 291 291 291
309 311 312 313 316 318 319 318 316 317 316 310 307 311 314 314 313 311 312 311 305 302 302 302 302 301 301 300 299 299 298 297 297 296 296 296 296 296 295 295 295 295 295 294 294 294 294 294 294 294 294 294 294 294 294 294 295 295 295 296 296 297 297 297 298 298 298 298 298 298 298 298 297 297 297 296 296 295 294 294 294 294 294 294 294 294 294 294 293 293 292 291 291 291 290 290 290
309 309 310 312 315 317 317 317 317 316 316 313 311 313 314 314 312 311 310 307 303 302 302 301 301 300 300 299 298 297 297 296 296 296 295 295 296 295 295 295 294 294 294 294 294 293 293 293 293 293 293 293 293 293 293 293 293 294 294 294 295 295 296 296 297 297 297 297 297 297 297 297 297 297 296 296 296 296 295 294 294 293 293 293 293 294 293 293 293 293 292 291 291 291 290 290 290
309 308 311 313 313 313 315 316 315 314 315 316 314 314 314 313 314 313 309 305 303 302 301 300 300 299 298 297 297 296 296 295 295 295 295 295 295 295 294 294 293 294 294 293 293 293 292 292 292 292 292 293 293 293 293 293 293 293 293 293 294 294 294 295 295 296 296 296 296 296 296 296 296 296 296 296 296 295 295 294 294 293 293 293 293 293 293 293 293 292 292 291 291 291 290 290 290
310 310 313 313 311 311 311 314 315 315 316 316 315 314 314 313 315 314 310 306 304 303 301 300 299 298 298 296 296 295 295 294 294 294 294 294 294 294 294 293 293 293 293 293 292 292 292 291 291 291 291 292 292 292 292 292 292 292 293 293 293 293 293 293 294 294 295 295 295 295 295 295 295 295 295 295 295 295 295 294 294 293 293 293 293 293 293 293 293 292 292 292 292 292 290 290 289
309 311 311 311 313 313 312 314 315 316 318 317 315 314 314 313 313 314 312 308 305 303 301 300 298 297 296 295 295 294 294 293 293 293 293 293 294 293 293 293 292 292 292 292 292 292 291 291 290 290 290 290 291 291 291 292 292 292 292 292 292 292 292 292 292 293 293 294 294 294 294 294 294 295 294 295 295 294 294 294 294 293 293 293 293 293 292 292 292 292 292 291 291 291 290 289 289
308 309 309 310 312 313 314 314 315 316 317 317 316 315 314 314 313 313 312 308 305 303 301 299 297 296 295 294 294 293 293 293 292 292 292 293 293 293 292 292 292 292 292 292 292 291 291 291 290 290 290 289 290 290 290 290 291 291 291 291 291 291 292 292 292 292 292 292 293 293 293 293 293 294 294 294 294 294 294 294 293 293 293 293 292 292 292 292 292 291 291 291 291 291 290 289 289
310 309 309 309 310 311 313 314 314 315 316 317 317 316 316 314 313 311 309 305 304 303 300 298 296 295 294 293 293 293 292 292 292 292 291 292 293 292 292 292 292 292 292 291 292 291 291 290 290 290 290 290 289 290 290 289 290 290 291 291 291 291 291 291 292 291 291 291 292 292 292 292 293 293 293 293 293 293 293 293 293 293 293 293 292 292 292 291 291 291 291 291 291 290 290 289 289
312 311 310 311 311 312 313 314 315 315 315 316 317 317 318 313 309 308 306 303 303 301 299 297 295 294 294 293 292 292 292 291 291 291 291 292 292 292 292 292 292 292 291 291 291 291 291 290 289 289 290 290 290 289 289 289 289 290 290 290 290 290 290 290 291 291 291 291 291 291 291 292 292 292 292 292 292 293 293 293 293 293 293 292 292 292 292 291 291 291 290 290 290 290 290 289 289
Wind_Speed
4 3 3 2 3 3 2 2 2 1 2 4 2 3 0 0 4 4 4 1 2 1 0 2 2 3 1 2 4 6 5 5 5 4 2 3 2 4 11 17 14 16 25 29 27 28 27 27 26 24 23 21 20 19 18 17 16 15 14 13 13 12 11 11 11 11 10 10 9 9 9 8 8 8 8 8 7 7 6 6 5 6 7 7 6 6 6 6 5 5 5 3 3 2 2 2 2
3 2 2 1 3 2 1 1 4 1 3 4 1 2 2 1 2 3 4 5 4 3 1 2 3 4 4 5 5 7 6 7 6 5 2 2 4 4 12 17 15 18 26 28 27 27 26 25 27 26 24 23 21 20 18 17 16 15 15 13 13 12 11 11 11 11 10 10 10 10 9 9 9 9 9 8 8 7 6 6 5 5 6 7 7 7 7 6 5 5 4 2 2 1 1 0 1
2 2 1 1 2 1 1 1 4 2 4 4 2 1 1 2 2 4 5 5 5 3 1 2 3 4 5 6 5 5 4 3 5 4 2 6 5 3 11 17 17 20 26 29 27 25 23 23 27 27 25 24 21 21 20 18 17 16 15 14 13 13 12 11 11 11 11 11 10 10 10 10 10 9 9 8 8 7 7 6 6 6 6 7 8 7 6 5 5 5 3 3 2 2 2 2 4
2 2 0 2 1 1 1 2 2 3 4 3 2 2 1 3 3 4 4 5 4 1 3 2 2 2 5 7 3 3 5 2 3 4 2 3 3 3 10 18 18 19 26 30 28 24 20 21 27 28 26 24 22 22 20 19 18 16 15 14 14 13 13 12 12 11 11 11 11 11 11 11 10 9 9 8 8 7 6 6 7 7 6 7 6 6 5 5 4 4 3 3 3 3 3 4 5
2 3 1 2 2 1 1 1 1 3 3 2 3 2 1 2 4 7 5 6 5 3 4 3 2 2 3 5 2 2 3 1 2 5 3 1 4 5 10 20 19 18 27 31 29 23 19 21 27 27 26 23 22 21 21 20 18 17 16 15 14 14 14 14 13 12 12 12 12 13 12 11 10 10 8 8 8 8 6 6 6 7 6 6 6 5 5 4 4 3 4 3 4 4 5 7 7
3 4 4 2 0 1 1 2 2 4 2 2 6 5 3 3 5 8 8 7 3 3 4 4 3 1 3 2 3 4 3 1 1 4 5 3 4 5 10 22 20 18 25 29 28 23 18 22 27 27 26 23 21 21 21 21 19 18 17 16 16 15 15 15 15 14 14 13 13 13 12 11 10 9 8 7 8 8 7 6 7 9 7 6 7 5 5 4 4 4 5 5 5 6 7 8 8
2 1 3 3 2 1 3 4 4 5 1 0 6 7 9 7 4 8 10 6 1 3 3 3 2 4 4 1 3 6 8 7 3 3 5 5 4 5 12 23 22 18 24 28 27 22 17 22 28 28 26 24 21 21 21 21 19 18 18 17 16 16 16 15 15 15 15 14 14 13 12 11 10 9 8 7 7 6 7 8 8 9 9 7 7 6 6 5 5 4 6 7 7 8 8 7 7
2 0 1 2 2 1 3 4 4 4 1 1 6 8 11 10 6 8 9 5 2 2 3 4 2 4 1 2 3 3 8 11 9 9 8 8 7 6 13 24 23 19 24 28 26 20 19 24 28 27 26 25 22 21 21 21 20 18 18 17 16 16 16 16 16 16 15 14 13 12 12 11 10 9 8 8 7 6 7 8 7 8 9 8 7 7 7 7 6 5 7 7 7 6 6 5 4
2 1 1 2 2 1 3 4 4 4 4 4 6 9 11 9 6 7 9 5 4 4 4 3 4 5 2 0 6 1 4 9 11 13 12 11 9 8 13 24 24 21 24 26 25 19 20 26 28 27 26 24 23 22 21 21 20 18 18 17 17 17 17 17 17 16 15 14 13 13 11 10 9 8 9 8 8 9 9 8 8 7 8 8 8 8 8 8 6 6 7 6 5 3 1 0 2
1 2 1 1 1 3 4 4 3 2 4 4 7 11 11 7 5 5 7 6 3 3 1 1 4 8 5 5 7 2 3 6 8 10 12 12 11 9 13 23 25 22 24 25 23 19 20 27 28 26 25 24 23 22 21 21 20 19 18 17 18 18 18 17 16 15 15 15 14 13 11 11 11 10 10 9 9 10 10 10 9 8 8 8 8 9 8 7 7 7 5 3 2 2 3 3 4
1 1 0 1 2 4 3 4 4 3 3 5 8 9 8 4 3 5 5 5 3 4 1 3 3 7 6 7 6 3 6 8 7 7 9 12 11 10 13 21 24 22 24 25 23 21 21 26 29 26 25 24 23 22 21 21 21 20 19 18 18 18 17 17 17 16 16 15 14 14 12 12 12 13 13 11 10 11 11 11 10 10 9 9 8 9 9 9 7 5 3 3 4 4 4 4 4
2 2 2 3 2 3 3 4 5 6 6 5 4 1 1 1 3 3 3 5 3 5 5 6 2 2 5 5 3 2 6 8 7 8 9 11 11 11 13 19 22 21 23 25 24 23 21 23 27 28 27 26 24 23 22 22 21 20 20 20 20 18 18 19 18 18 17 17 16 16 15 15 13 15 15 12 12 12 12 12 11 11 10 10 9 9 10 9 7 5 4 4 4 4 4 4 4
2 2 2 2 1 2 2 4 4 6 6 2 0 3 1 3 4 3 2 4 3 5 3 7 3 1 6 6 3 5 5 5 7 9 9 10 11 12 14 18 20 21 22 23 22 23 22 21 23 26 28 28 27 25 24 23 22 22 21 21 21 21 20 20 18 18 18 18 17 16 16 16 16 16 14 13 13 13 12 12 12 11 11 11 10 9 9 8 7 5 5 5 4 4 3 3 3
1 1 2 1 0 2 2 4 3 4 4 1 1 3 2 4 2 2 3 7 5 2 3 3 3 3 7 5 4 4 1 1 6 8 9 11 12 13 15 16 17 17 19 19 19 23 25 23 21 22 26 29 28 28 27 25 25 25 24 23 22 22 22 21 20 18 18 18 17 17 17 17 18 17 16 15 14 13 13 12 11 11 11 11 10 10 9 9 7 6 6 5 4 4 3 2 3
1 2 1 1 2 2 3 3 2 3 3 1 1 2 2 4 2 2 4 8 5 2 1 2 4 3 3 4 6 1 3 2 4 6 8 10 12 13 13 13 12 13 15 16 18 23 27 26 24 22 23 25 25 27 28 28 28 27 27 26 25 24 24 24 22 20 20 20 19 20 20 19 20 20 19 17 15 14 13 12 12 12 12 11 11 11 10 9 8 7 6 5 5 4 3 2 3
1 2 1 2 2 2 3 2 1 3 3 1 2 2 3 3 4 3 2 4 6 0 2 4 5 5 4 7 7 3 1 4 3 5 7 9 11 11 10 10 11 13 14 17 19 22 26 27 29 27 25 25 23 23 25 28 30 29 28 28 27 25 24 24 23 23 23 22 22 22 22 22 20 21 22 18 16 16 14 14 13 12 12 12 12 12 11 10 9 8 7 6 5 4 3 2 2
1 2 3 3 3 3 3 4 4 2 3 2 3 3 5 3 4 2 1 3 9 5 4 6 6 7 9 10 8 4 6 7 5 5 6 7 8 8 9 10 11 13 15 18 20 21 22 25 32 33 31 31 27 26 28 30 32 30 29 28 28 27 25 25 24 24 24 23 24 24 23 22 20 21 21 18 16 17 15 15 14 13 13 13 14 14 12 11 10 9 8 7 5 4 2 1 1
3 3 3 4 4 4 4 7 6 1 5 5 2 3 5 7 2 1 2 6 10 10 10 10 9 12 15 15 14 14 12 9 7 7 7 8 7 8 9 11 13 15 16 18 21 22 22 25 33 36 36 38 34 33 35 35 33 31 31 29 29 28 26 26 26 25 25 24 25 25 23 21 20 18 18 17 16 17 17 16 15 15 14 14 15 14 13 12 11 10 9 7 5 4 2 1 1
3 2 3 5 4 2 4 7 6 4 7 7 4 3 4 7 4 1 5 10 9 12 14 10 12 15 17 17 19 20 15 11 10 9 11 11 11 11 11 12 15 17 18 21 23 25 24 23 31 38 38 40 38 37 37 36 34 32 31 31 31 30 28 28 27 26 27 27 26 27 22 20 21 17 18 19 17 17 17 17 16 16 15 15 16 15 14 13 12 11 9 7 5 4 3 3 3
3 2 5 7 5 3 4 7 7 8 7 8 8 3 4 6 3 1 5 12 11 13 15 11 12 13 12 13 15 14 12 12 12 12 14 15 15 15 14 14 16 21 24 24 22 24 27 27 34 41 39 38 39 38 38 37 35 33 30 30 31 29 29 29 29 29 29 30 29 28 24 24 25 20 21 22 19 17 17 17 18 18 17 17 17 16 15 15 14 12 10 8 6 5 5 4 4
2 4 8 4 2 4 6 8 9 7 4 7 8 5 7 6 2 5 6 9 13 13 12 12 14 15 13 11 8 7 9 11 13 14 16 17 18 17 17 17 17 22 25 23 22 27 31 33 37 42 41 39 39 39 39 38 35 33 30 29 30 28 27 31 32 32 32 32 31 30 29 29 27 23 24 23 19 17 16 18 19 18 17 18 18 17 17 17 15 12 11 9 8 7 6 5 5
2 8 10 5 2 5 6 6 6 3 1 5 7 8 7 3 3 10 10 8 12 12 9 11 14 16 15 12 7 4 7 11 12 15 16 18 19 19 19 18 16 19 24 26 27 31 34 34 36 40 42 42 42 41 39 38 37 35 33 32 31 29 29 33 35 35 35 34 33 33 32 31 28 26 25 24 21 19 18 19 19 18 19 22 21 20 19 17 14 13 12 10 9 8 7 7 6
6 8 8 8 6 7 6 2 3 3 3 6 7 8 5 6 11 11 13 15 18 18 16 15 17 17 13 9 8 7 10 11 12 15 17 19 20 21 21 19 18 21 27 31 30 32 33 35 36 37 39 41 42 42 39 37 39 38 35 35 35 31 33 36 36 37 37 37 36 36 34 32 30 28 27 27 26 23 22 22 23 24 24 24 23 22 19 16 15 14 13 11 10 10 9 8 8
7 8 6 7 6 9 8 2 3 4 7 9 7 8 10 14 13 8 12 16 20 22 20 18 18 18 12 10 12 13 14 14 16 18 18 20 24 26 25 22 21 23 28 32 32 33 34 36 37 36 37 36 35 36 34 33 38 41 38 39 38 35 36 38 38 39 39 39 38 38 36 34 32 31 30 30 29 27 26 27 28 28 27 26 24 22 19 17 17 15 14 13 12 12 11 10 9
9 11 7 4 4 9 9 3 5 8 8 8 7 11 19 18 11 13 15 15 19 21 20 18 16 16 13 13 15 14 15 15 18 19 18 22 26 26 26 24 19 22 29 32 32 34 35 35 36 38 38 35 31 29 29 29 35 41 41 42 41 38 39 40 41 41 40 40 40 39 38 37 35 33 33 32 31 31 30 30 30 30 29 27 25 22 20 19 19 17 16 15 15 14 13 12 11
7 9 6 5 8 9 8 6 8 9 7 6 7 16 21 12 6 15 16 15 18 17 17 15 11 13 13 12 13 13 14 15 16 17 17 20 22 21 26 26 20 25 32 30 31 35 35 35 36 38 39 37 33 29 27 28 34 42 44 44 43 42 42 41 43 43 42 41 41 42 40 39 38 36 35 34 34 33 33 32 31 31 30 28 26 23 22 21 20 19 18 17 16 15 14 13 12
0 4 7 9 12 10 7 8 10 9 7 8 10 18 20 4 3 11 7 5 8 8 12 12 9 12 13 12 11 10 12 15 17 15 15 16 15 18 23 24 25 33 33 31 35 37 36 37 37 37 38 38 37 33 30 28 34 44 45 45 45 45 44 44 45 45 43 44 44 44 42 41 40 38 37 36 35 35 35 34 33 33 32 29 27 25 24 23 22 21 20 19 18 17 15 14 13
3 4 9 12 13 11 10 11 10 8 6 8 11 16 18 4 2 14 10 2 2 5 12 13 12 13 13 12 11 8 9 14 16 13 14 15 15 16 20 23 29 35 33 35 39 36 37 38 37 38 38 40 40 38 34 31 36 45 46 45 46 46 47 46 46 46 46 46 46 45 44 43 41 40 39 38 37 37 36 36 35 35 33 31 29 27 26 25 23 22 21 20 18 17 16 15 14
3 3 9 13 12 14 14 11 7 7 5 6 8 10 13 9 10 17 16 7 2 6 13 13 13 13 11 11 9 8 10 12 12 12 15 18 16 14 20 26 30 33 33 37 37 35 38 38 37 39 38 40 42 40 38 36 40 46 47 47 47 47 48 47 47 48 48 47 47 47 46 44 43 41 40 39 38 38 37 37 37 36 35 33 31 29 27 26 25 23 22 20 19 18 16 16 15
5 3 4 10 11 11 7 3 2 4 5 7 7 6 10 11 13 15 11 6 5 9 12 12 12 12 11 10 9 10 12 13 13 15 16 17 16 15 21 26 26 30 33 33 33 35 37 36 38 39 39 42 44 43 41 40 43 47 49 49 47 48 48 48 49 49 49 49 48 47 46 46 44 43 42 40 38 39 38 38 38 37 36 34 32 31 29 28 26 25 23 21 20 18 18 17 16
5 3 2 5 8 5 2 4 3 3 3 8 7 7 9 14 16 11 2 2 6 10 14 12 12 13 14 13 12 14 15 15 17 21 19 16 16 18 25 27 25 29 31 31 34 35 34 35 38 39 40 42 44 45 45 45 44 46 49 49 48 49 48 49 49 49 49 49 49 48 48 47 45 44 43 41 40 39 39 39 38 38 37 35 33 32 31 30 28 26 25 23 22 20 19 19 17
4 4 4 4 5 7 3 2 6 7 2 7 8 6 8 13 16 11 2 2 4 10 17 17 16 17 16 14 14 14 15 15 18 22 18 14 15 18 24 28 28 29 31 31 33 33 33 34 36 38 41 43 45 47 49 49 45 44 46 47 48 49 49 49 49 49 49 49 49 50 49 48 46 45 44 42 41 40 40 40 39 39 37 35 34 34 33 32 30 28 27 25 24 22 21 19 17
4 4 7 6 6 8 6 3 6 7 2 6 11 8 8 10 14 13 5 5 9 13 21 22 20 19 17 14 13 13 13 14 15 15 12 9 11 15 19 24 27 28 30 31 30 30 31 33 34 36 40 43 44 46 47 47 45 43 43 43 44 47 48 48 48 49 49 50 50 50 50 49 48 46 45 43 42 41 41 40 40 39 38 36 36 36 34 33 32 30 28 27 25 24 22 20 17
3 4 6 6 8 9 8 7 2 5 6 7 11 11 12 14 16 20 18 16 15 17 22 22 19 18 17 15 14 13 12 12 13 11 9 9 11 13 16 21 24 26 28 29 28 28 29 30 33 35 37 39 40 42 42 42 41 39 38 39 41 43 45 46 46 47 49 50 50 51 51 50 49 48 46 44 43 42 42 41 41 40 38 37 38 37 35 34 32 31 30 28 26 24 21 19 17
9 7 6 7 7 8 9 9 5 3 7 8 9 12 15 16 16 19 22 20 18 18 20 19 17 18 19 16 14 12 11 12 12 9 9 10 12 14 16 18 21 22 24 26 26 26 27 28 31 33 34 34 34 35 36 35 33 32 31 33 37 39 40 42 45 46 47 49 50 51 52 51 50 49 48 46 44 43 43 42 42 41 39 39 39 38 37 35 33 32 31 29 27 24 20 18 18
10 7 8 10 9 9 12 13 10 7 9 12 14 15 14 14 15 17 20 20 19 19 16 15 16 18 17 13 11 10 11 11 8 8 9 10 11 14 15 16 19 20 20 20 21 22 24 26 28 30 31 32 29 27 28 28 26 25 24 27 32 35 36 39 43 44 44 46 49 50 51 51 50 50 49 48 46 45 44 44 43 42 41 41 40 39 38 37 35 34 32 30 29 25 21 20 20
5 6 8 10 10 12 14 15 10 3 5 10 13 17 16 14 15 18 20 21 20 18 15 15 18 16 10 8 9 9 10 9 6 7 9 9 10 13 15 17 20 21 20 17 16 17 19 21 24 26 27 29 28 25 24 25 23 21 21 24 27 28 31 37 40 41 42 43 47 49 49 50 50 50 50 49 48 47 46 45 44 43 42 42 41 41 40 38 37 35 33 30 29 27 24 23 23
9 9 9 9 9 12 12 14 9 4 2 7 9 15 16 17 19 19 19 19 18 16 16 17 17 14 8 7 9 9 9 8 7 9 8 7 11 15 17 19 20 21 21 19 14 14 15 17 19 22 23 25 28 26 24 25 24 23 22 23 23 21 26 33 34 37 41 42 43 46 47 48 49 50 50 50 49 48 47 46 45 44 43 43 42 40 40 39 38 37 34 31 29 26 25 26 26
9 7 6 7 9 11 10 9 3 4 2 7 10 13 15 19 22 19 16 13 14 16 15 12 10 11 11 9 9 9 10 10 9 11 11 13 17 20 22 23 23 22 21 19 17 16 14 13 15 18 20 23 26 26 26 26 24 25 25 22 20 18 21 28 31 32 37 40 41 42 44 45 46 48 49 49 49 48 47 46 45 45 44 44 43 41 40 40 39 39 38 35 30 23 21 28 31
7 6 6 8 9 8 7 4 2 3 5 7 11 12 12 16 14 12 9 8 12 12 8 6 5 8 11 9 8 8 10 11 12 14 15 19 22 24 25 25 25 23 20 20 22 21 16 12 12 14 16 19 23 25 28 27 24 26 27 26 24 19 18 22 26 30 32 34 36 37 40 42 44 46 47 48 49 49 48 47 46 46 46 45 44 43 42 42 42 41 40 39 35 25 19 27 35
6 6 7 10 11 10 11 6 6 9 6 2 9 9 7 5 2 1 1 5 9 4 3 4 4 4 6 6 6 7 9 11 13 16 16 18 21 23 25 24 25 24 20 23 26 22 17 14 11 10 11 14 17 21 25 26 24 23 23 24 22 19 19 18 19 22 21 23 27 29 33 37 39 42 44 46 48 49 49 48 48 47 47 46 46 46 45 45 44 44 43 41 40 33 24 26 34
6 6 10 12 13 13 14 10 7 7 3 3 8 8 3 1 1 3 5 9 10 3 4 5 4 4 5 7 9 10 12 13 12 14 16 17 20 22 24 25 25 24 23 26 29 25 20 16 12 9 7 8 12 16 20 21 20 17 16 17 16 15 16 16 16 16 16 21 26 28 32 35 37 39 41 44 46 47 48 48 49 48 48 47 47 47 46 46 45 45 45 43 42 38 29 24 29
6 2 4 7 9 9 10 9 5 4 4 2 3 5 6 5 6 5 6 12 11 7 7 7 8 7 8 10 11 12 13 12 10 14 18 19 21 23 24 26 25 24 24 27 32 31 27 22 16 11 6 4 8 11 15 16 15 14 15 16 14 14 13 13 13 15 16 20 24 27 31 35 37 39 41 42 44 46 47 48 48 49 48 48 49 48 47 47 47 47 46 46 44 39 32 25 27
3 1 0 2 3 4 4 4 4 4 6 3 3 4 8 7 5 7 8 9 7 6 7 8 9 9 10 12 13 13 12 11 10 15 19 19 21 23 24 25 26 26 26 29 34 35 31 26 20 14 8 5 6 8 11 14 13 12 14 15 13 13 13 10 9 12 13 15 20 24 26 29 34 37 38 40 42 44 46 47 48 48 48 49 50 49 49 49 48 48 47 47 46 41 37 28 26
1 2 0 0 1 1 1 2 4 3 5 4 4 4 6 6 2 5 4 4 2 4 8 8 10 11 11 13 15 13 11 12 13 16 17 18 21 23 23 24 26 27 27 31 35 36 33 27 20 16 13 9 8 6 6 11 12 10 11 13 13 13 13 11 9 10 11 13 17 20 22 25 30 34 37 39 41 43 45 46 46 47 47 48 49 49 49 49 48 49 49 48 48 45 43 34 26
1 4 2 2 2 2 1 3 4 3 6 5 6 7 6 7 3 5 1 0 1 3 6 6 11 13 12 14 13 12 10 11 14 16 16 17 19 21 21 24 27 28 29 33 37 37 34 27 21 21 18 15 12 9 6 7 10 11 10 10 12 12 11 10 10 10 10 12 15 17 19 22 25 30 35 37 40 42 43 45 46 47 48 47 49 48 48 49 48 50 50 50 51 48 47 42 30
2 3 1 1 1 1 1 1 2 4 7 4 8 12 7 5 1 3 1 2 3 5 6 10 11 13 13 12 11 11 12 11 13 13 14 16 18 19 21 24 27 29 32 37 38 35 32 26 22 24 25 21 18 14 9 7 8 9 9 9 11 12 11 11 12 12 11 11 13 14 15 18 20 26 30 33 38 40 41 43 44 45 47 47 49 49 49 49 48 49 49 49 52 50 50 49 40
1 1 3 4 2 1 2 1 1 4 6 1 3 7 8 7 3 1 1 1 1 5 7 11 11 13 13 11 11 12 12 12 12 12 13 15 17 19 23 25 25 28 32 34 33 30 28 26 25 26 28 27 23 20 15 11 9 8 9 10 11 12 12 12 12 13 12 12 14 14 13 15 18 21 25 30 36 39 40 41 42 43 44 46 48 49 49 49 48 49 49 49 51 52 51 51 47
1 1 1 3 3 2 3 3 2 5 5 1 2 3 6 10 6 2 5 3 2 2 7 9 10 12 11 10 11 11 10 11 12 11 12 12 14 17 21 23 23 25 27 27 27 27 27 28 29 29 30 29 27 23 20 16 13 11 10 11 11 11 12 13 13 14 13 13 14 14 14 16 18 20 26 31 35 38 40 40 42 44 44 45 46 47 47 48 48 48 49 50 51 52 52 52 50
5 4 3 4 4 4 5 4 3 6 4 2 2 3 4 9 6 8 12 3 8 10 10 11 12 11 9 9 10 9 11 11 11 11 12 11 13 15 18 20 21 22 23 23 23 24 24 26 29 30 30 32 32 28 24 20 16 14 13 13 13 13 13 13 13 14 14 13 13 15 16 17 19 24 29 32 33 36 38 40 42 43 44 44 45 46 47 47 48 48 48 50 51 52 53 53 52
5 2 2 3 4 4 5 5 6 8 5 1 3 3 3 5 1 3 4 6 13 12 11 12 11 9 7 8 9 10 11 10 10 10 11 12 14 16 17 18 19 20 21 21 21 22 23 24 27 28 29 31 34 33 30 26 21 17 15 14 14 14 14 14 14 14 14 14 14 16 17 18 20 24 28 32 33 34 37 39 40 41 42 44 44 45 46 46 47 47 47 49 50 51 51 51 52
1 2 1 3 3 3 4 5 5 7 6 3 4 3 4 4 3 3 3 12 12 10 11 10 9 7 7 8 9 10 10 9 9 10 10 12 15 17 18 18 18 18 19 20 21 23 24 24 25 25 26 27 29 32 32 32 29 25 21 17 15 14 14 15 16 16 15 16 17 18 19 19 21 23 26 29 32 33 35 37 39 41 42 43 44 44 45 45 45 46 46 47 48 49 49 50 51
2 3 4 2 0 1 4 6 1 1 7 6 5 7 7 7 10 6 8 14 10 8 9 8 8 8 8 9 9 8 8 8 8 8 9 11 14 16 17 18 19 19 20 21 22 22 22 21 22 23 24 25 26 27 28 31 33 32 29 25 20 17 15 16 16 17 18 19 21 22 21 21 22 24 26 28 30 32 33 35 37 40 42 43 44 44 45 45 45 46 46 47 48 49 48 49 50
4 3 3 1 1 0 3 5 1 4 10 7 8 13 12 9 7 3 12 12 7 6 7 7 8 8 8 9 7 7 7 7 7 8 8 10 12 14 15 16 18 18 19 20 21 22 22 23 24 24 25 26 24 24 23 25 30 33 33 31 28 23 19 17 17 18 19 19 21 23 24 24 25 26 28 29 30 30 32 33 35 38 40 42 44 44 45 45 45 45 46 47 49 49 49 49 50
1 1 1 0 3 4 4 4 3 7 10 7 10 15 13 10 10 8 4 9 7 5 5 6 7 7 7 6 6 6 6 5 6 6 6 8 10 12 13 13 14 15 16 17 18 20 23 26 29 29 29 30 28 28 26 24 25 27 28 30 30 29 25 22 19 18 19 19 21 23 25 27 29 29 29 30 30 30 31 32 34 36 38 40 42 44 44 45 45 45 45 46 47 48 48 48 50
0 2 2 1 2 4 4 2 2 6 9 10 11 13 10 8 10 12 3 9 8 4 5 5 6 6 4 4 4 3 4 4 4 4 4 5 6 7 9 9 10 10 12 13 14 17 19 23 27 29 30 32 32 32 31 29 26 23 22 24 28 30 30 28 25 22 19 19 21 23 25 27 29 29 30 30 30 30 31 32 33 35 37 39 40 42 43 44 45 46 46 47 47 47 47 48 48
4 4 4 4 3 2 3 3 3 5 9 10 11 11 9 5 4 2 6 9 6 5 6 4 4 4 3 3 3 2 3 4 4 4 4 4 6 6 6 6 7 7 9 11 13 15 17 19 22 24 24 25 27 27 27 28 27 24 23 22 23 25 28 30 29 26 23 22 22 22 24 26 27 28 29 30 30 31 32 33 33 35 36 38 39 41 42 43 44 45 46 47 47 47 48 48 47
3 5 6 6 5 3 5 8 6 5 7 8 10 11 7 1 3 4 8 7 5 6 6 5 4 4 2 2 2 2 3 4 4 4 4 5 7 8 8 9 10 11 12 14 14 16 17 18 19 19 20 21 22 23 23 23 23 23 24 25 24 24 26 27 27 26 24 24 23 22 22 23 25 27 28 29 30 31 32 33 34 35 36 37 39 40 42 42 43 44 45 47 48 48 49 49 47
Wind_Direction
343 340 334 338 334 287 278 318 278 175 265 278 279 292 212 197 321 292 293 326 301 13 230 301 159 168 206 308 316 322 305 260 279 293 340 50 283 255 193 189 191 179 181 184 182 183 182 183 180 180 183 184 186 184 184 184 186 186 185 186 187 185 181 182 179 179 178 178 178 178 179 170 166 162 160 157 156 158 160 159 159 159 154 150 138 135 138 138 143 137 124 134 139 125 124 99 102
354 352 348 30 12 296 221 339 283 278 267 284 272 269 35 81 263 297 346 359 348 27 354 279 217 234 288 310 305 295 264 225 261 303 352 305 287 261 210 192 186 178 180 186 183 182 182 185 183 181 184 185 187 186 185 185 186 187 187 187 187 187 184 185 182 180 180 179 180 183 182 176 171 163 157 151 150 148 146 146 141 144 151 151 144 143 135 127 144 136 128 161 169 177 204 352 351
20 19 10 206 29 338 187 227 272 296 285 297 346 82 51 266 273 5 360 346 352 24 290 250 240 256 251 252 259 277 273 218 253 273 267 277 282 251 217 198 188 178 182 187 183 183 183 188 186 183 185 185 188 188 188 188 189 190 190 191 189 186 184 185 184 183 184 183 185 186 186 182 172 160 153 149 148 142 140 142 137 135 143 145 144 141 125 126 145 133 149 193 186 228 249 297 315
46 22 182 235 235 227 231 255 281 286 287 300 328 78 140 282 341 349 333 326 334 287 237 219 220 206 236 257 279 275 270 250 217 225 256 280 248 249 217 202 193 180 185 188 185 183 183 194 190 184 186 185 188 190 191 191 192 194 194 196 194 190 185 184 187 187 187 189 192 190 188 181 167 158 154 149 147 142 142 148 144 137 142 145 140 135 129 139 143 137 178 207 217 244 261 289 301
60 33 67 242 251 284 303 277 276 256 284 337 317 32 106 292 315 310 307 308 302 246 229 225 234 143 238 272 292 278 284 263 173 203 248 305 231 248 213 200 197 185 188 189 186 184 185 198 193 187 187 187 191 192 194 195 195 197 197 199 199 196 188 185 189 190 192 195 195 192 187 176 163 160 160 154 154 155 156 162 159 151 157 163 159 148 142 148 141 161 210 226 239 254 270 286 296
88 59 66 79 63 355 242 250 245 250 289 341 292 313 334 305 302 306 303 303 289 226 226 227 267 272 250 244 221 255 302 318 145 200 220 253 236 238 210 198 198 192 190 189 189 188 192 200 193 189 189 189 192 194 197 197 197 199 200 201 201 199 192 189 192 194 198 197 194 190 182 171 166 170 170 168 176 182 180 184 182 170 167 171 178 173 157 162 151 180 229 243 256 267 277 285 293
155 128 68 93 114 267 252 263 270 273 311 239 279 298 310 312 313 306 305 313 189 181 213 233 293 287 264 190 228 240 245 248 248 230 214 238 239 220 207 198 198 195 190 190 192 191 198 201 193 191 192 190 192 197 199 199 200 201 202 203 202 200 197 196 196 198 200 197 191 186 181 175 175 180 179 185 202 207 203 201 196 188 180 173 178 180 174 173 160 186 237 250 260 267 275 282 290
118 165 15 247 172 223 259 264 272 278 283 238 273 274 287 305 311 297 300 307 267 221 210 224 233 266 282 124 259 221 232 244 241 247 242 251 250 221 203 198 199 197 192 191 193 194 200 199 194 195 194 193 194 198 202 202 201 202 203 203 202 201 200 199 200 201 198 192 188 184 184 182 181 189 191 198 212 212 211 206 198 196 193 187 183 183 179 169 169 212 247 254 260 264 271 280 302
63 9 197 252 221 235 258 261 269 263 251 258 267 260 271 289 293 284 281 274 275 272 233 222 204 247 358 211 264 203 220 252 248 250 247 251 250 230 204 200 201 199 195 193 195 195 198 198 196 198 196 196 196 198 201 201 202 202 204 204 202 201 201 201 200 198 191 188 188 187 190 193 195 208 215 215 220 215 212 205 194 192 194 193 187 181 173 170 193 236 251 250 254 250 256 359 47
78 4 190 216 230 254 261 258 261 236 240 259 271 269 273 281 276 264 268 281 286 277 277 79 209 242 307 301 276 275 248 267 259 255 248 244 243 232 209 202 203 201 199 197 197 194 196 198 198 199 197 198 198 201 201 200 200 200 204 205 204 203 201 198 195 193 189 190 197 198 198 206 212 218 225 226 220 209 205 202 198 194 192 193 188 185 190 204 228 247 245 228 201 139 111 94 78
172 63 230 224 229 265 277 278 277 273 266 272 275 269 277 280 260 250 248 278 281 267 247 133 218 241 266 282 268 255 269 276 262 259 252 237 235 229 212 206 204 204 205 202 199 195 197 199 201 200 199 200 201 204 204 203 201 201 205 203 205 203 196 192 191 195 197 198 202 206 205 213 220 217 220 222 211 201 201 201 198 197 194 195 190 194 218 232 237 237 210 164 136 119 113 104 94
223 137 213 245 246 273 297 296 289 299 292 272 266 210 319 190 209 267 254 282 289 271 239 186 216 259 243 264 263 265 264 267 258 253 250 230 228 225 212 209 206 207 209 206 203 199 199 199 202 202 201 202 202 205 205 204 201 201 203 199 202 198 195 198 200 203 206 207 208 214 216 217 222 222 220 216 205 200 202 201 197 196 193 195 190 198 224 231 223 209 172 146 133 124 120 113 106
246 159 214 246 286 282 290 292 291 303 297 266 166 112 102 201 218 298 288 293 271 275 266 196 205 301 259 279 286 280 263 249 253 249 239 221 218 218 211 210 210 209 209 209 205 202 201 199 202 204 204 204 204 205 206 205 201 200 203 201 202 199 200 206 209 213 215 216 217 221 223 220 220 220 215 207 201 201 204 202 199 196 193 194 190 199 219 219 209 188 162 148 139 131 122 106 87
242 180 247 247 86 267 249 280 285 293 304 32 92 135 194 228 240 281 279 301 277 273 347 203 199 256 264 278 271 269 256 238 255 244 228 218 213 214 212 211 212 210 208 208 207 206 205 203 202 203 205 206 206 207 209 209 205 202 204 206 207 207 208 209 213 217 216 218 217 216 217 217 217 215 211 204 201 203 204 202 199 195 192 192 191 202 212 209 199 178 164 156 149 140 121 89 57
227 174 248 222 183 241 215 260 294 277 294 356 109 126 219 237 201 213 253 297 305 80 7 220 185 250 251 241 277 10 79 313 275 240 220 215 212 213 212 212 213 210 210 211 209 208 207 207 205 206 206 207 207 209 211 212 211 208 207 210 213 214 214 215 217 217 215 217 216 213 214 216 216 216 216 210 206 209 207 203 198 194 190 188 193 203 208 203 192 178 173 167 161 151 128 86 47
247 176 211 239 211 232 209 209 228 251 262 157 122 128 257 230 167 233 278 296 295 181 200 209 190 255 268 244 284 23 7 301 296 245 216 211 214 214 213 213 216 215 217 216 213 211 210 210 209 210 209 209 209 209 211 213 214 213 212 213 215 217 219 219 219 218 218 220 221 216 215 217 218 219 221 214 209 212 209 205 198 193 188 186 196 205 204 196 189 184 181 177 171 155 132 95 55
218 216 228 244 217 220 197 193 204 267 292 220 155 177 260 269 161 222 306 253 267 261 219 220 210 242 248 248 278 303 286 293 285 252 211 208 209 209 213 212 214 217 220 219 217 214 213 213 212 213 213 213 213 213 215 216 216 215 215 215 215 217 220 219 216 218 220 221 223 218 215 217 217 218 219 213 209 211 210 207 199 191 184 186 200 205 199 192 190 190 187 184 173 157 137 114 72
221 223 236 246 235 221 194 212 214 272 295 268 204 174 251 285 273 173 253 239 247 261 252 233 234 244 242 251 265 267 273 278 263 241 210 207 204 205 209 207 211 215 219 219 218 216 216 217 215 215 216 216 216 217 219 218 219 217 217 218 218 217 219 218 216 219 220 219 220 217 213 213 212 210 209 206 203 207 209 208 198 189 182 188 202 202 195 192 193 194 192 186 172 165 161 175 229
231 220 243 244 237 206 197 226 221 234 279 288 278 208 231 278 304 32 274 273 261 268 272 242 235 247 244 246 252 253 258 257 246 233 225 220 214 214 211 206 210 215 216 218 218 215 215 218 217 217 218 219 219 220 221 221 221 220 219 219 218 217 218 217 216 218 218 217 218 215 209 207 209 203 203 204 200 204 207 206 197 189 187 193 202 200 195 194 195 197 192 186 178 180 190 206 226
226 217 249 250 239 233 221 235 233 243 278 290 281 258 244 261 263 209 264 285 276 262 271 260 252 263 255 242 241 240 238 240 234 232 236 234 228 225 221 212 209 218 220 219 219 215 215 217 218 220 220 220 220 220 221 221 221 221 219 218 217 216 217 216 215 216 216 216 218 215 209 211 212 207 212 213 207 206 205 203 197 193 195 200 203 198 195 196 197 195 188 187 189 194 202 212 222
177 203 247 257 213 246 233 227 239 252 282 278 278 287 276 268 207 223 249 283 276 261 258 259 270 284 283 270 249 221 223 231 229 231 238 239 236 232 231 226 221 226 227 222 220 221 221 220 219 221 221 220 221 220 221 221 220 219 216 216 216 213 215 215 215 216 216 217 218 216 215 218 217 212 217 215 206 202 197 197 195 193 194 200 201 193 195 198 196 193 189 190 193 200 207 215 222
203 223 247 257 191 257 249 216 236 244 242 261 265 278 288 299 231 230 229 252 269 274 273 266 275 283 286 287 275 226 229 233 228 229 233 238 239 236 235 232 229 229 230 228 226 227 226 224 221 220 221 221 222 221 221 221 219 217 216 216 214 212 213 214 215 215 217 218 217 218 220 221 217 215 216 211 203 197 193 192 191 191 194 200 199 195 199 199 195 193 192 194 199 206 211 217 222
247 236 239 250 233 248 257 177 190 186 212 250 259 284 301 274 267 242 216 232 256 272 282 279 281 282 282 285 273 250 243 238 234 231 229 235 238 238 237 232 228 230 234 234 232 231 230 228 224 220 220 221 222 222 220 221 220 218 216 217 215 212 214 214 214 215 216 217 217 219 220 219 216 214 215 211 208 203 199 197 197 198 201 204 202 201 203 198 195 195 195 200 204 209 211 215 218
248 255 237 247 242 246 256 209 195 215 236 254 273 296 282 264 272 257 220 230 253 268 276 275 277 280 277 271 266 261 256 249 246 242 235 238 242 244 245 238 234 236 239 239 235 234 232 232 227 222 221 220 219 219 219 220 221 220 218 218 216 214 215 215 215 215 216 216 217 219 218 218 216 213 214 213 212 209 206 205 205 205 206 207 206 204 202 198 198 197 199 202 205 209 210 212 214
227 252 252 238 246 251 258 234 227 243 246 255 273 277 269 266 279 278 258 245 254 264 270 271 273 275 271 263 262 261 260 256 253 251 243 244 248 250 250 246 239 238 242 242 239 237 235 234 230 225 223 219 215 213 216 218 220 220 219 219 218 216 217 216 216 216 217 216 217 218 218 218 216 215 215 214 213 211 210 211 209 208 209 210 208 204 201 201 200 199 201 203 204 206 206 208 210
214 247 272 266 267 267 263 251 242 247 244 228 246 263 267 275 303 280 265 245 250 259 266 272 272 271 269 260 257 254 257 258 256 254 248 248 249 248 251 250 241 242 246 245 243 242 239 236 234 229 224 221 216 211 212 216 218 219 220 220 219 218 218 217 217 218 217 217 218 219 219 219 218 217 216 215 214 212 212 212 210 209 211 211 208 205 202 201 202 201 201 202 203 203 203 205 206
99 274 292 276 273 275 256 254 253 250 248 212 226 261 267 287 11 273 254 191 233 258 269 273 266 265 268 264 260 252 251 256 257 258 255 251 244 241 248 246 242 247 248 245 245 245 242 239 237 233 227 223 220 215 214 216 219 220 221 221 220 220 219 218 219 219 218 218 219 219 219 219 220 219 217 216 214 213 213 212 210 210 211 211 208 206 203 202 203 203 202 202 201 200 201 200 201
7 319 294 278 276 277 252 249 251 241 242 208 217 259 268 262 214 257 257 177 180 269 274 275 271 269 270 270 270 259 249 252 252 249 250 249 241 237 244 245 247 250 248 248 248 244 243 240 236 235 230 226 223 219 218 218 219 220 222 221 221 221 220 220 220 220 220 220 220 220 220 220 220 220 219 219 216 214 213 212 210 210 211 210 208 206 204 202 203 204 204 202 200 199 199 198 198
316 297 289 287 286 282 265 254 236 212 218 180 193 256 268 241 220 247 262 264 252 271 273 274 274 272 270 267 267 263 259 256 247 238 241 249 249 244 252 256 255 254 252 254 251 243 243 240 237 236 232 228 225 222 220 220 222 222 223 222 221 221 221 220 220 221 222 221 221 221 221 221 221 221 220 220 218 215 214 212 211 211 211 210 208 205 204 203 203 204 203 200 199 198 197 197 196
275 253 278 293 289 282 266 242 166 190 195 157 180 261 277 259 246 251 263 281 296 282 272 271 272 275 274 266 264 266 266 263 259 255 251 254 259 258 263 265 260 258 257 255 251 247 245 240 237 235 231 230 228 224 221 224 225 223 223 223 221 221 221 221 221 222 222 222 223 222 222 222 222 222 221 221 218 216 215 214 213 212 212 210 207 204 202 203 202 202 200 197 196 195 196 196 193
276 274 236 273 277 279 121 128 145 217 183 157 200 262 274 278 281 275 286 358 309 291 282 276 270 274 276 272 271 271 270 270 270 272 272 267 266 266 269 270 266 262 260 255 254 253 247 241 239 235 232 231 228 226 224 226 227 224 223 222 221 222 222 222 222 222 222 223 223 223 223 223 223 223 222 221 218 217 216 216 215 213 212 210 207 204 202 202 201 201 199 196 194 194 196 194 191
258 275 262 230 240 269 280 174 194 240 228 163 207 258 265 270 285 289 60 94 271 284 287 284 277 274 275 274 272 271 273 276 275 279 283 275 268 268 272 275 271 266 263 259 258 255 249 243 242 238 234 232 229 229 228 228 227 225 224 222 221 222 222 222 222 222 223 223 224 224 224 223 223 223 223 222 220 218 217 217 216 214 213 210 206 204 203 202 201 200 199 199 197 193 194 193 191
217 235 267 263 257 277 293 265 216 220 196 191 218 254 276 272 289 295 285 260 271 283 284 283 282 280 280 279 276 271 276 281 281 287 295 291 281 275 273 277 275 270 267 262 257 254 250 245 242 240 237 234 231 230 229 227 226 225 225 222 222 222 222 222 221 222 223 223 223 224 224 223 223 223 224 223 221 219 218 217 216 216 214 209 207 205 203 203 202 201 200 200 199 194 192 191 188
242 227 250 263 260 273 292 290 265 170 187 223 227 240 262 268 284 292 287 283 282 279 278 281 284 285 284 282 277 276 281 287 288 299 316 317 305 288 278 279 278 274 270 265 258 254 252 247 244 244 240 235 232 230 229 227 226 227 226 224 223 223 223 222 222 223 223 223 223 223 224 224 223 223 223 223 221 221 219 218 218 217 213 210 208 206 204 203 203 203 201 199 198 193 189 188 188
281 278 276 282 261 255 270 276 286 259 251 268 257 247 260 269 273 279 282 283 278 269 272 281 284 283 281 278 277 284 291 288 292 315 329 321 309 298 289 287 286 280 272 268 261 255 251 246 245 245 240 234 232 230 229 227 226 226 226 226 226 225 224 223 222 223 224 223 223 224 224 224 223 223 223 222 221 221 220 219 219 217 213 209 208 205 204 203 202 203 202 200 195 190 186 186 188
290 294 286 287 286 272 270 270 274 291 290 285 278 272 278 279 273 277 282 281 275 270 274 283 281 274 273 278 286 296 297 293 310 333 322 312 307 307 307 305 305 299 288 278 268 259 253 248 245 244 239 233 229 226 225 223 221 222 222 223 226 225 224 224 224 224 224 224 223 224 224 223 223 222 222 221 221 220 219 219 218 217 213 209 207 205 204 204 203 202 202 201 195 189 187 187 189
287 276 272 273 282 279 276 279 283 333 304 277 277 285 292 288 277 274 276 276 276 279 282 276 270 272 282 301 302 301 298 303 334 322 301 303 315 323 325 327 327 322 317 308 291 275 265 257 250 246 242 235 228 222 219 217 215 216 218 221 224 224 223 225 225 225 225 225 224 224 224 223 222 222 222 221 220 219 218 217 217 215 212 209 209 208 207 206 204 202 201 199 195 190 188 189 187
259 260 272 272 269 271 275 285 303 28 310 272 276 288 297 294 280 268 266 273 280 280 273 265 269 287 311 318 307 309 309 312 324 315 311 329 342 345 344 345 347 341 336 335 325 307 289 272 261 253 247 240 232 226 222 220 217 216 218 222 224 223 224 225 225 226 226 226 226 225 224 223 222 222 222 220 219 218 216 215 215 214 212 210 209 209 209 207 205 203 200 195 192 191 190 189 184
257 254 268 272 268 274 273 273 316 62 292 294 301 300 295 282 275 274 272 270 270 265 264 273 295 302 302 309 317 323 320 321 330 339 354 4 3 2 1 1 359 354 353 354 352 343 324 295 274 261 252 245 239 233 229 226 223 223 224 225 226 224 229 230 228 229 229 228 228 227 226 224 223 222 221 220 219 217 216 215 215 214 213 211 209 208 208 208 205 204 201 195 189 186 190 191 186
246 246 264 269 270 283 278 256 28 347 289 298 302 295 281 272 268 273 275 256 256 264 275 291 289 281 291 311 325 327 330 338 346 356 7 12 12 12 10 5 0 1 3 2 360 354 344 324 296 273 258 251 244 238 235 231 229 229 228 228 229 228 233 237 235 234 234 232 230 229 228 226 225 223 223 221 219 218 217 216 216 215 214 212 210 209 208 208 206 204 202 198 191 183 184 191 191
239 228 244 264 274 280 280 290 338 312 285 305 310 294 274 288 293 244 311 255 255 273 329 284 258 272 310 333 347 357 3 6 5 8 15 17 16 15 14 9 5 6 0 360 4 359 348 337 319 292 267 254 248 244 240 234 230 232 229 229 233 235 238 240 239 238 236 233 232 231 231 229 227 225 224 223 222 220 219 218 217 216 215 213 211 210 210 209 208 206 203 200 196 190 185 189 194
265 226 234 259 277 282 284 298 329 307 273 59 347 322 285 240 278 344 348 281 272 321 329 314 347 2 15 18 17 21 18 17 21 24 26 23 20 17 16 15 12 7 357 2 12 9 359 353 341 322 290 260 252 250 244 234 228 227 224 222 226 230 234 235 233 232 231 232 233 233 233 232 230 228 227 226 225 222 221 219 218 217 216 213 211 211 211 210 208 207 205 202 201 198 190 185 192
275 237 233 258 270 278 285 297 312 298 298 29 4 313 285 256 246 262 270 264 281 318 327 1 26 28 47 44 29 26 21 17 25 34 34 27 21 18 17 17 16 8 359 8 19 18 13 9 2 352 336 293 269 257 245 234 225 223 222 220 222 225 230 235 233 229 231 233 232 232 234 234 232 231 229 228 227 224 223 221 220 219 217 215 213 211 211 211 210 209 208 206 204 201 195 188 190
260 120 256 249 266 278 271 286 280 285 314 299 190 229 276 281 234 214 233 260 290 332 343 19 51 54 52 51 43 40 33 25 28 38 37 29 22 21 19 17 17 14 7 14 24 24 20 17 14 12 11 352 306 277 252 238 227 223 225 226 231 236 240 250 246 235 236 235 232 232 233 234 233 231 229 228 227 225 224 223 222 220 218 217 214 212 212 212 211 211 210 208 206 203 200 196 193
308 101 198 117 33 331 227 277 278 288 317 290 182 182 267 290 195 190 252 289 335 16 350 13 71 70 42 47 50 45 40 34 37 42 37 31 26 23 23 21 21 20 15 20 28 29 25 21 20 22 24 17 353 324 275 249 236 231 232 233 240 245 247 257 260 248 243 240 237 234 232 233 233 231 229 228 228 226 226 225 223 221 219 218 216 214 214 213 213 213 211 209 207 205 205 203 199
97 128 128 102 92 67 121 280 293 291 288 265 174 175 261 298 194 181 230 215 68 16 339 7 77 80 47 49 51 39 39 34 37 43 38 34 30 25 26 27 27 26 23 27 32 32 28 22 23 28 28 22 11 357 324 275 250 242 242 241 245 252 254 258 260 256 250 245 241 236 233 233 233 232 230 229 229 228 227 226 225 223 221 220 219 217 216 216 215 215 214 212 210 208 208 206 204
112 159 249 279 172 122 159 269 308 276 271 248 170 182 225 293 210 180 160 114 25 4 341 351 41 69 54 50 48 37 38 33 32 38 35 33 31 28 30 30 29 29 30 33 33 32 28 24 26 31 30 26 19 9 352 319 281 261 256 254 253 255 260 262 261 257 251 244 242 238 235 232 233 234 232 230 230 229 229 228 226 225 223 222 221 220 219 218 216 216 216 215 213 211 210 209 208
164 137 323 305 269 208 198 177 153 256 269 299 140 182 209 243 236 120 10 129 311 334 348 353 20 54 51 43 42 36 35 34 32 30 28 27 24 23 27 30 28 27 31 33 31 30 29 27 30 33 32 29 24 16 5 347 320 295 280 276 273 266 265 265 263 259 253 246 243 239 234 232 232 234 232 232 232 231 229 228 226 226 225 224 224 222 220 220 219 218 217 216 215 214 213 211 210
178 155 278 288 296 274 248 240 209 251 266 70 95 171 219 246 244 241 273 245 168 24 21 26 46 59 51 42 42 38 35 36 34 29 26 25 22 20 23 27 27 26 29 29 28 29 30 30 32 34 33 31 29 25 16 3 344 326 308 295 289 283 278 273 267 264 260 253 247 240 234 232 231 233 235 235 236 233 230 227 227 227 226 226 226 224 223 222 221 219 218 217 217 216 216 214 213
180 188 193 220 261 265 260 258 256 267 276 79 122 179 239 270 260 227 243 265 74 73 59 58 68 68 58 50 46 42 39 37 36 33 28 24 24 23 23 27 27 25 26 26 25 27 30 33 34 35 35 33 33 31 25 16 1 344 329 312 301 294 288 284 278 272 268 261 253 247 242 239 236 238 242 241 240 237 233 230 229 228 227 227 227 227 226 225 223 221 220 220 220 219 219 217 216
183 174 169 217 236 251 262 255 259 273 278 130 146 165 250 289 360 183 222 48 60 73 74 70 70 67 61 55 48 43 39 35 34 35 32 28 24 23 24 26 25 24 24 25 25 24 27 31 31 33 34 32 34 34 31 25 14 0 346 328 315 304 295 290 286 280 275 268 261 256 252 248 245 246 248 247 244 241 237 234 230 229 229 228 228 228 227 227 225 223 222 222 222 222 221 220 219
185 97 163 241 229 217 255 258 257 288 294 239 195 214 251 274 287 249 122 83 77 75 73 72 68 59 58 53 45 41 38 33 32 31 30 28 25 25 25 24 23 22 24 26 26 26 27 29 30 33 33 32 33 35 34 31 26 20 10 355 337 320 306 298 291 286 282 276 271 267 261 257 254 254 254 252 249 246 242 237 233 231 230 229 229 229 228 227 226 225 224 224 224 224 224 223 221
140 158 203 220 204 198 261 268 226 283 276 257 243 259 265 274 276 250 124 98 87 75 71 71 64 56 55 51 43 39 36 34 34 32 29 29 28 27 26 25 23 20 21 24 26 27 28 28 29 31 32 32 30 31 33 33 32 30 25 18 6 348 329 313 302 294 289 284 280 276 271 266 262 261 259 257 254 251 247 242 237 234 232 231 230 229 229 228 227 226 225 225 227 227 226 225 224
149 189 220 143 37 182 255 265 229 234 255 251 245 260 270 278 278 159 118 107 91 82 80 74 65 59 59 55 45 38 36 33 37 37 33 33 32 31 30 28 26 23 23 24 24 27 29 30 30 29 29 28 26 26 27 27 29 30 29 26 21 12 358 339 324 311 302 293 286 283 279 275 272 269 266 262 259 255 251 247 241 237 235 232 231 230 230 229 228 227 227 228 229 228 227 226 226
190 258 316 309 248 239 219 223 232 241 252 252 240 250 259 256 258 255 174 124 113 106 92 81 71 65 63 63 52 42 37 30 36 38 34 35 35 33 33 32 30 29 27 26 25 27 28 30 32 31 30 30 29 28 27 24 23 24 24 24 24 22 16 4 352 336 320 306 298 293 287 282 280 277 273 269 264 257 253 250 245 241 238 235 233 231 230 229 227 227 227 228 229 228 227 227 227
121 271 269 251 261 261 242 221 228 241 253 261 252 249 248 239 257 271 237 118 125 134 104 86 74 70 69 71 63 51 48 39 37 40 38 43 44 42 41 36 33 31 29 27 27 28 29 28 29 29 28 28 28 29 29 26 23 20 18 19 21 22 21 17 10 359 342 326 315 307 300 294 288 283 278 273 267 260 256 252 249 245 241 238 235 233 231 229 228 227 226 227 228 229 228 227 227
191 221 223 214 219 261 279 258 224 243 259 263 261 258 247 244 297 304 115 115 129 126 111 106 89 83 75 62 59 52 52 47 37 34 32 33 36 38 40 37 35 35 32 30 30 31 30 28 26 25 22 20 20 21 23 24 24 22 18 16 16 17 18 17 15 9 359 345 334 323 313 306 298 291 285 277 270 264 260 255 251 247 244 241 238 235 232 230 229 228 227 227 227 228 227 227 227
224 230 228 231 236 249 271 255 223 227 251 252 261 262 244 250 12 79 114 118 121 120 121 124 111 101 92 71 61 55 52 45 39 31 22 21 21 20 23 24 24 24 24 24 27 28 28 26 24 22 19 16 13 13 13 14 16 17 17 17 16 15 15 14 13 9 2 353 344 335 325 316 306 300 293 284 277 270 265 260 254 250 246 243 240 237 234 232 230 229 228 228 227 226 226 226 225